Regional Weather Roundup
Issued by NWS Lake Charles, LA

Home | Current Version | Previous Version | Text Only | Print | Product List | Glossary On
Versions: 1 2 3 4 5 6 7 8 9 10 11 12 13 14 15 16 17 18 19 20 21 22 23 24 25 26 27 28 29 30 31 32 33 34 35 36 37 38 39 40 41 42 43 44 45 46 47 48 49 50
000
ASUS44 KLCH 060310
RWRLCH
RWRLCH
REGIONAL WEATHER ROUNDUP
NATIONAL WEATHER SERVICE LAKE CHARLES LA
900 PM CST THU MAR 05 2015

Note: "fair" indicates few or no clouds below 12,000 feet with no
significant weather and/or obstructions to visibility.


ACROSS SOUTHEAST TEXAS

CITY           SKY/WX    TMP DP  RH WIND       PRES   REMARKS
BEAUMONT       CLEAR     39  24  55 N14       30.53R
BEAUMONT CITY    N/A     38  25  58 N9        30.54R
ORANGE         CLEAR     38  26  61 N8        30.55R
JASPER         CLEAR     36  22  58 N5        30.57R
$$

ACROSS CENTRAL LOUISIANA

CITY           SKY/WX    TMP DP  RH WIND       PRES   REMARKS
LEESVILLE      CLEAR     33  21  61 N6        30.53R WCI  27
FULLERTON        N/A     35  20  54 VRB3      30.51R
ALEXANDRIA INT CLEAR     32  19  58 N5        30.55R WCI  27
ESLER FIELD    CLEAR     33  20  58 CALM      30.55R
DERIDDER         N/A     34  22  63 CALM      30.56R
OAKDALE        CLEAR     33  25  71 N3        30.54R
OPELOUSAS        N/A     33  17  52 N14G25    30.52R WCI  23
$$

ACROSS SOUTHWEST AND SOUTH CENTRAL LOUISIANA

CITY           SKY/WX    TMP DP  RH WIND       PRES   REMARKS
SULPHUR        CLEAR     38  25  60 N9        30.53R
LAKE CHARLES   CLEAR     37  24  59 N13       30.52R WCI  29
CHENNAULT INT  CLEAR     36  24  60 N10G16    30.53R WCI  29
CAMERON PHI    CLEAR     39  27  60 N16G25    30.54R
DEQUINCY         N/A     35  23  62 N5        30.53S
JENNINGS         N/A     35  25  67 N13       30.51R WCI  26
LAFAYETTE      CLEAR     34  23  64 N16       30.49R WCI  24
NEW IBERIA     NOT AVBL
ABBEVILLE        N/A     33  23  65 N14G20    30.50R WCI  24
PATTERSON      PTCLDY    36  21  55 N14G21    30.46R WCI  27
SALT POINT       N/A     37  21  52 N9G22     30.45R
$$

SELECTED SITES ACROSS THE REGION

CITY           SKY/WX    TMP DP  RH WIND       PRES   REMARKS
HOUSTON BUSH   CLEAR     41  25  53 N8        30.54R
HOUSTON HOBBY  PTCLDY    43  26  51 N16G22    30.53R
GALVESTON      CLEAR     44  29  55 N22G30    30.53R
COLLEGE STAT   CLEAR     36  26  67 N12       30.58R WCI  28
CONROE         CLEAR     38  23  55 N5        30.56R
HUNTSVILLE       N/A     36  24  62 VRB3      30.56R
LUFKIN           N/A     36  21  54 N3        30.56R
SHREVEPORT     CLEAR     34  21  59 N6        30.57R WCI  29
MONROE         CLEAR     30  18  60 N8        30.58R WCI  22
NATCHEZ MS     CLEAR     30  12  47 N9G22     30.53R WCI  22
BATON ROUGE    PTCLDY    32  20  61 N8        30.50R WCI  25
N.O. INTL ARPT PTCLDY    37  24  59 N21G31    30.44R WCI  26
SLIDELL        PTCLDY    36  24  62 N14G31    30.44R WCI  27
$$

MARINE REPORTS

STATION/POSITION TIME  TEMP    WIND        PRES    VSBY  WAVE
                       AIR SEA DIR/SP/G                  HT/PER
                 (UTC) (F)     (DEG/KT/KT) (MB)    (MI)  (FT/S)
BUOY 30 S HIGH I 0300   46 59   20/ 21/ 27 1032.2R         5/ 5
SEA RIM ST PARK  0300   40      10/ 15/ 18 1034.1R
PORT ARTHUR      0300      56   10/ 11/ 15 1033.7R
SABINE PASS N    0300   42 55   20/ 18/ 24 1033.6R
TEXAS POINT      NOT AVBL
CALCASIEU PASS   0300   39 50   40/ 18/ 25   N/A
LK CHARLES BEACH 0300   38 56              1033.9R
MARSH ISLAND     0200   38      20/ 22/ 29   N/A           0
FRESH WATER LOCK 0300   36 57  350/ 15/ 24 1032.2R
AMERADA PASS     0300   37 45   10/  9/ 17 1030.4R
$$


USA.gov is the U.S. government's official web portal to all federal, state and local government web resources and services.